Location: A�t �Alizem
(31.2076°N, 8.7872°W)
Time: 09:49:09
(UTC+00:00)

deb Explorer IX - Pass Details

Date: 27 June 2021
Orbit: 541 x 1234 km, 38.9° (Epoch: 29 July)

Event Time Altitude Azimuth Distance (km) Brightness Sun altitude
Exits shadow 02:06:08 30° 323° (NW) 1,346 ? -31.6°
Maximum altitude 02:08:16 45° 15° (NNE) 1,098 ? -31.4°
Drops below altitude 10° 02:14:14 10° 87° (E) 2,645 ? -30.8°
Sets 02:17:15 0° 93° (E) 3,712 ? -30.5°
